| time (UTC) | temp F | wind direction | speed MPH | gust MPH | rain 1hr in | rain 24hr in | rain mn in | humidity % | barometer mb |
| 20260506050354 | 65 | 174 | 0.0 | 0.0 | 0.00 | 0.00 | 0.00 | 56 | 1015.2 |
| 20260506044854 | 66 | 174 | 0.0 | 0.0 | 0.00 | 0.00 | 0.00 | 54 | 1015.0 |
| 20260506043353 | 67 | 174 | 0.0 | 0.0 | 0.00 | 0.00 | 0.00 | 50 | 1014.7 |
| 20260506041853 | 68 | 174 | 0.0 | 0.0 | 0.00 | 0.00 | 0.00 | 48 | 1014.5 |
| 20260506040351 | 70 | 282 | 0.0 | 0.0 | 0.00 | 0.00 | 0.00 | 45 | 1014.3 |
| 20260506034851 | 71 | 283 | 0.0 | 0.0 | 0.00 | 0.00 | 0.00 | 41 | 1014.0 |
| 20260506034048 | 73 | 285 | 0.0 | 0.0 | 0.00 | 0.00 | 0.00 | 39 | 1013.6 |
| 20260506032550 | 74 | 285 | 0.0 | 0.0 | 0.00 | 0.00 | 0.00 | 37 | 1013.2 |
| 20260506030350 | 75 | 291 | 0.0 | 0.0 | 0.00 | 0.00 | 0.00 | 34 | 1013.1 |
| 20260506024849 | 76 | 288 | 0.0 | 0.0 | 0.00 | 0.00 | 0.00 | 32 | 1012.8 |
| 20260506023349 | 77 | 342 | 0.0 | 3.0 | 0.00 | 0.00 | 0.00 | 30 | 1012.7 |
| 20260506022559 | 78 | 342 | 0.0 | 4.0 | 0.00 | 0.00 | 0.00 | 29 | 1012.5 |
| 20260506020349 | 78 | 354 | 1.0 | 5.0 | 0.00 | 0.00 | 0.00 | 28 | 1012.3 |
| 20260506014849 | 79 | 278 | 1.0 | 4.0 | 0.00 | 0.00 | 0.00 | 27 | 1012.2 |
| 20260506013350 | 80 | 304 | 1.0 | 8.0 | 0.00 | 0.00 | 0.00 | 26 | 1012.1 |
| 20260506011849 | 80 | 268 | 0.0 | 4.0 | 0.00 | 0.00 | 0.00 | 26 | 1011.9 |
| 20260506010348 | 80 | 326 | 0.0 | 4.0 | 0.00 | 0.00 | 0.00 | 25 | 1012.0 |
| 20260506004849 | 80 | 276 | 1.0 | 4.0 | 0.00 | 0.00 | 0.00 | 25 | 1012.0 |
| 20260506003348 | 80 | 340 | 1.0 | 5.0 | 0.00 | 0.00 | 0.00 | 24 | 1011.8 |
| 20260506001843 | 80 | 316 | 1.0 | 11.0 | 0.00 | 0.00 | 0.00 | 24 | 1011.9 |
| 20260506000344 | 79 | 335 | 1.0 | 9.0 | 0.00 | 0.00 | 0.00 | 24 | 1011.9 |
| 20260505234843 | 79 | 359 | 1.0 | 6.0 | 0.00 | 0.00 | 0.00 | 25 | 1011.9 |
| 20260505233342 | 79 | 354 | 1.0 | 9.0 | 0.00 | 0.00 | 0.00 | 26 | 1012.1 |
| 20260505231843 | 79 | 244 | 1.0 | 8.0 | 0.00 | 0.00 | 0.00 | 27 | 1012.1 |
| 20260505230342 | 79 | 166 | 1.0 | 4.0 | 0.00 | 0.00 | 0.00 | 26 | 1012.2 |
| 20260505224839 | 78 | 249 | 0.0 | 3.0 | 0.00 | 0.00 | 0.00 | 26 | 1012.4 |
| 20260505223340 | 78 | 243 | 0.0 | 2.0 | 0.00 | 0.00 | 0.00 | 28 | 1012.7 |
| 20260505222540 | 77 | 180 | 0.0 | 3.0 | 0.00 | 0.00 | 0.00 | 28 | 1012.8 |
| 20260505220336 | 77 | 58 | 0.0 | 2.0 | 0.00 | 0.00 | 0.00 | 29 | 1013.1 |
| 20260505214837 | 75 | 295 | 0.0 | 1.0 | 0.00 | 0.00 | 0.00 | 32 | 1013.3 |
| 20260505213337 | 74 | 122 | 0.0 | 4.0 | 0.00 | 0.00 | 0.00 | 37 | 1013.4 |
| 20260505211834 | 73 | 274 | 0.0 | 3.0 | 0.00 | 0.00 | 0.00 | 39 | 1013.8 |
| 20260505210333 | 72 | 312 | 0.0 | 1.0 | 0.00 | 0.00 | 0.00 | 41 | 1014.0 |
| 20260505204832 | 71 | 227 | 0.0 | 0.0 | 0.00 | 0.00 | 0.00 | 41 | 1014.2 |
| 20260505203333 | 70 | 103 | 0.0 | 0.0 | 0.00 | 0.00 | 0.00 | 40 | 1014.3 |
| 20260505201832 | 69 | 237 | 0.0 | 3.0 | 0.00 | 0.00 | 0.00 | 41 | 1014.5 |
| 20260505201023 | 68 | 286 | 0.0 | 4.0 | 0.00 | 0.00 | 0.00 | 45 | 1014.7 |
| 20260505194833 | 67 | 262 | 0.0 | 4.0 | 0.00 | 0.00 | 0.00 | 49 | 1014.8 |
| 20260505193333 | 66 | 296 | 0.0 | 4.0 | 0.00 | 0.00 | 0.00 | 52 | 1014.9 |
| 20260505191832 | 65 | 339 | 0.0 | 3.0 | 0.00 | 0.00 | 0.00 | 52 | 1015.0 |
| 20260505190332 | 66 | 276 | 0.0 | 2.0 | 0.00 | 0.00 | 0.00 | 52 | 1015.1 |
| 20260505184830 | 64 | 293 | 0.0 | 3.0 | 0.00 | 0.00 | 0.00 | 56 | 1015.3 |
| 20260505183330 | 63 | 189 | 0.0 | 2.0 | 0.00 | 0.00 | 0.00 | 57 | 1015.4 |
| 20260505181830 | 63 | 185 | 0.0 | 2.0 | 0.00 | 0.00 | 0.00 | 57 | 1015.5 |
| 20260505180331 | 62 | 204 | 0.0 | 6.0 | 0.00 | 0.00 | 0.00 | 58 | 1015.6 |
| 20260505174830 | 61 | 247 | 0.0 | 2.0 | 0.00 | 0.00 | 0.00 | 60 | 1015.6 |
| 20260505173328 | 61 | 276 | 0.0 | 1.0 | 0.00 | 0.00 | 0.00 | 62 | 1015.7 |
| 20260505171828 | 60 | 165 | 0.0 | 1.0 | 0.00 | 0.00 | 0.00 | 63 | 1015.7 |
| 20260505170325 | 60 | 308 | 0.0 | 1.0 | 0.00 | 0.00 | 0.00 | 65 | 1015.7 |
| 20260505164826 | 59 | 238 | 0.0 | 2.0 | 0.00 | 0.00 | 0.00 | 66 | 1015.7 |
| 20260505163326 | 59 | 263 | 0.0 | 1.0 | 0.00 | 0.00 | 0.00 | 68 | 1015.8 |
| 20260505161826 | 58 | 274 | 0.0 | 1.0 | 0.00 | 0.00 | 0.00 | 67 | 1015.9 |
| 20260505160326 | 58 | 278 | 0.0 | 0.0 | 0.00 | 0.00 | 0.00 | 68 | 1016.0 |
| 20260505153328 | 58 | 258 | 0.0 | 0.0 | 0.00 | 0.00 | 0.00 | 69 | 1015.9 |
| 20260505151825 | 57 | 248 | 0.0 | 4.0 | 0.00 | 0.00 | 0.00 | 70 | 1015.8 |
| 20260505150328 | 57 | 290 | 0.0 | 0.0 | 0.00 | 0.00 | 0.00 | 70 | 1015.6 |
| 20260505140326 | 56 | 234 | 0.0 | 0.0 | 0.00 | 0.00 | 0.00 | 72 | 1015.2 |
| 20260505124818 | 56 | 234 | 0.0 | 0.0 | 0.00 | 0.00 | 0.00 | 72 | 1014.7 |
| 20260505123320 | 56 | 234 | 0.0 | 0.0 | 0.00 | 0.00 | 0.00 | 72 | 1014.6 |
| 20260505121818 | 56 | 234 | 0.0 | 0.0 | 0.00 | 0.00 | 0.00 | 72 | 1014.5 |
| 20260505120316 | 56 | 225 | 0.0 | 0.0 | 0.00 | 0.00 | 0.00 | 72 | 1014.5 |
| 20260505114814 | 56 | 214 | 0.0 | 0.0 | 0.00 | 0.00 | 0.00 | 71 | 1014.3 |
| 20260505114021 | 56 | 246 | 0.0 | 1.0 | 0.00 | 0.00 | 0.00 | 71 | 1014.3 |
| 20260505111811 | 57 | 188 | 0.0 | 1.0 | 0.00 | 0.00 | 0.00 | 71 | 1014.2 |
| 20260505111016 | 57 | 214 | 0.0 | 1.0 | 0.00 | 0.00 | 0.00 | 71 | 1014.2 |
| 20260505100301 | 57 | 214 | 0.0 | 0.0 | 0.00 | 0.00 | 0.00 | 70 | 1014.0 |
| 20260505094758 | 57 | 215 | 0.0 | 0.0 | 0.00 | 0.00 | 0.00 | 70 | 1014.0 |
| 20260505093259 | 57 | 216 | 0.0 | 0.0 | 0.00 | 0.00 | 0.00 | 70 | 1014.2 |
| 20260505092457 | 57 | 216 | 0.0 | 0.0 | 0.00 | 0.00 | 0.00 | 69 | 1014.3 |
| 20260505090256 | 58 | 265 | 0.0 | 0.0 | 0.00 | 0.00 | 0.00 | 69 | 1014.2 |
| 20260505084753 | 58 | 279 | 0.0 | 0.0 | 0.00 | 0.00 | 0.00 | 70 | 1014.3 |
| 20260505083252 | 58 | 285 | 0.0 | 0.0 | 0.00 | 0.00 | 0.00 | 70 | 1014.3 |
| 20260505081745 | 58 | 290 | 0.0 | 0.0 | 0.00 | 0.00 | 0.00 | 70 | 1014.5 |
| 20260505080243 | 58 | 282 | 0.0 | 0.0 | 0.00 | 0.00 | 0.00 | 70 | 1014.5 |
| 20260505074742 | 58 | 262 | 0.0 | 0.0 | 0.00 | 0.00 | 0.00 | 70 | 1014.5 |
| 20260505073239 | 58 | 286 | 0.0 | 0.0 | 0.00 | 0.00 | 0.00 | 70 | 1014.4 |
| 20260505071739 | 58 | 283 | 0.0 | 0.0 | 0.00 | 0.00 | 0.00 | 70 | 1014.4 |
| 20260505070947 | 58 | 285 | 0.0 | 0.0 | 0.00 | 0.00 | 0.00 | 70 | 1014.3 |
| 20260505064740 | 58 | 283 | 0.0 | 1.0 | 0.00 | 0.00 | 0.00 | 69 | 1014.2 |
| 20260505063239 | 58 | 214 | 0.0 | 1.0 | 0.00 | 0.00 | 0.00 | 69 | 1014.2 |
| 20260505061740 | 58 | 193 | 0.0 | 0.0 | 0.00 | 0.00 | 0.00 | 70 | 1014.2 |
| 20260505060242 | 58 | 223 | 0.0 | 1.0 | 0.00 | 0.00 | 0.00 | 69 | 1014.0 |
| 20260505054740 | 58 | 262 | 0.0 | 1.0 | 0.00 | 0.00 | 0.00 | 69 | 1014.0 |
| 20260505053241 | 58 | 283 | 0.0 | 1.0 | 0.00 | 0.00 | 0.00 | 69 | 1013.8 |
| 20260505051739 | 58 | 318 | 0.0 | 1.0 | 0.00 | 0.00 | 0.00 | 68 | 1013.6 |